Location: Biharia
(46.4333°N, 22.8000°E)
Time: 04:00:22
(UTC+00:00)

Cosmos 494 Rocket - Pass Details

Date: 03 June 2022
Orbit: 742 x 770 km, 74.1° (Epoch: 05 July)

Event Time Altitude Azimuth Distance (km) Brightness Sun altitude
Rises 22:28:58 0° 324° (NW) 3,191 8.1 -21.2°
Reaches altitude 10° 22:31:54 10° 308° (NW) 2,263 6.9 -21.2°
Maximum altitude 22:35:28 19° 263° (W) 1,703 5.7 -21.1°
Enters shadow 22:36:29 18° 248° (WSW) 1,755 5.6 -21.1°
